Tracking 27107 objects as of 20-Mar-2023
HD Live streaming from Space Station
objects crossing your sky now

PSLV DEB

Track PSLV DEB now!
10-day predictions


NORAD ID: 27255
Int'l Code: 2001-049HB
Perigee: 556.6 km
Apogee: 612.0 km
Inclination: 98.0 °
Period: 96.2 minutes
Semi major axis: 6955 km
RCS: 0.0078 m2 (small)
Launch date: October 22, 2001
Source: India (IND)
Launch site: SRIHARIKOTA (SRI)

Note: This is SATELLITE DEBRIS
Your satellite tracking list
Your tracking list is empty




NASA's NSSDC Master Catalog

Two Line Element Set (TLE):
1 27255U 01049HB  23078.48333316  .00013030  00000-0  11274-2 0  9990
2 27255  97.9815  86.5266 0039778  69.0110  84.8645 14.96682152147984
Source of the keplerian elements: AFSPC